Regional Weather Roundup
Issued by NWS

Home | Current Version | Previous Version | Graphics & Text | Print | Product List | Glossary On
Versions: 1 2 3 4 5 6 7 8 9 10 11 12 13 14 15 16 17 18 19 20 21 22 23 24 25 26 27 28 29 30 31 32 33 34 35 36 37 38 39 40 41 42 43 44 45 46 47 48 49 50
000
ASUS43 KMKX 231621
RWRWI

WISCONSIN REGIONAL WEATHER ROUNDUP
NATIONAL WEATHER SERVICE MILWAUKEE/SULLIVAN WI
1000 AM CST THU NOV 23 2017

NOTE: "FAIR" INDICATES FEW OR NO CLOUDS BELOW 12,000 FEET WITH NO
SIGNIFICANT WEATHER AND/OR OBSTRUCTIONS TO VISIBILITY.

WIZ001-002-006>008-014>016-023>028-231700-
NORTHWEST WISCONSIN

CITY           SKY/WX    TMP DP  RH WIND       PRES   REMARKS
SUPERIOR ARPT  CLOUDY    26  22  85 SW5       29.93S WCI  21
ASHLAND        SUNNY     30  19  63 SW10      29.91F WCI  21
HAYWARD        SUNNY     29  19  66 SW5       29.90F WCI  24
SIREN          SUNNY     30  20  66 NW3       29.93R
CUMBERLAND     SUNNY     28  19  69 CALM      29.92R
RICE LAKE      SUNNY     29  22  74 CALM      29.93S
CHETEK         SUNNY     29  22  74 CALM      29.92S
LADYSMITH      SUNNY     32  20  62 CALM      29.93S
EAU CLAIRE     SUNNY     31  19  61 W3        29.93F
MENOMONIE      SUNNY     32  20  62 CALM      29.94R
NEW RICHMOND   SUNNY     31  20  63 CALM      29.94R
OSCEOLA        SUNNY     30  21  71 NW3       29.98R
$$

WIZ003>005-009-010-017-018-231700-
NORTH CENTRAL WISCONSIN

CITY           SKY/WX    TMP DP  RH WIND       PRES   REMARKS
MANITOWISH WTR SUNNY     28  19  68 W7        29.87F WCI  21
ARBOR VITAE    SUNNY     32  22  66 W7        29.87F WCI  25
WOODRUFF       SUNNY     32  22  66 W7        29.87F WCI  25
RHINELANDER    SUNNY     31  20  63 W8        29.88F WCI  23
EAGLE RIVER    SUNNY     30  18  60 W10       29.86F WCI  21
LAND O LAKES   SUNNY     30  19  64 W6        29.88S WCI  24
PHILLIPS       SUNNY     30  19  63 W3        29.89S
TOMAHAWK       SUNNY     30  19  62 W3        29.89F
MEDFORD        SUNNY     30  19  63 W6        29.90F WCI  24
MERRILL        SUNNY     32  20  61 NW8       29.91F WCI  25
$$

WIZ029-030-035-036-043>047-231700-
CENTRAL WISCONSIN

CITY           SKY/WX    TMP DP  RH WIND       PRES   REMARKS
WAUSAU         SUNNY     32  19  58 NW8       29.91R WCI  25
MOSINEE        MOSUNNY   32  21  64 W7        29.93R WCI  26
MARSHFIELD     SUNNY     34  18  52 W7        29.91R WCI  28
STEVENS POINT  SUNNY     32  18  55 W8        29.94R WCI  25
WAUPACA        SUNNY     37  20  50 SW6       29.93R WCI  33
WAUTOMA        SUNNY     36  18  48 SW8       29.93  WCI  30
WISC RAPIDS    SUNNY     35  19  52 NW9       29.95R WCI  28
CAMP DOUGLAS   SUNNY     37  18  47 W6        29.93R WCI  32
$$

WIZ011>013-019>022-031-037>040-048>050-231700-
NORTHEAST WISCONSIN

CITY           SKY/WX    TMP DP  RH WIND       PRES   REMARKS
ANTIGO         SUNNY     31  19  60 W9        29.90R WCI  23
SHAWANO        SUNNY     37  20  51 W6        29.93R WCI  32
OCONTO         CLOUDY    34  19  54 W9        29.93R WCI  27
STURGEON BAY   MOSUNNY   35  20  54 W10       29.93S WCI  27
GREEN BAY      SUNNY     36  22  56 SW10      29.93F WCI  28
MANITOWOC      SUNNY     36  20  52 SW10      29.94  WCI  28
APPLETON       SUNNY     36  18  48 SW12      29.90F WCI  27
CLINTONVILLE   SUNNY     36  18  48 W7        29.93R WCI  30
OSHKOSH        SUNNY     36  22  56 SW9       29.92F WCI  29
$$

WIZ032>034-041-042-053>061-231700-
SOUTHWEST WISCONSIN

CITY           SKY/WX    TMP DP  RH WIND       PRES   REMARKS
LA CROSSE      SUNNY     36  19  50 NW6       29.96R WCI  31
SPARTA         SUNNY     34  20  58 W6        29.95R WCI  28
VIROQUA        SUNNY     33  22  62 W5        29.93R WCI  29
BOSCOBEL       SUNNY     36  20  52 S6        29.96F WCI  31
PRAIRIE DU CHI SUNNY     35  19  52 CALM      29.96S
PLATTEVILLE    SUNNY     35  22  59 SW7       29.95F WCI  29
$$

WIZ056-057-062-063-064-067-068-231700-
SOUTH CENTRAL WISCONSIN

CITY           SKY/WX    TMP DP  RH WIND       PRES   REMARKS
REEDSBURG      SUNNY     35  19  52 SW7       29.93S WCI  29
BARABOO/DELLS  SUNNY     36  19  50 SW7       29.92F WCI  30
LONE ROCK      SUNNY     36  21  54 W6        29.95F WCI  31
MINERAL POINT  SUNNY     36  23  60 W5        29.94S WCI  32
MADISON        MOSUNNY   36  21  54 S5        29.94F WCI  32
MIDDLETON      SUNNY     37  20  50 SW7       29.94F WCI  32
WATERTOWN      SUNNY     36  22  55 SW9       29.95S WCI  29
MONROE         SUNNY     34  21  60 SW13      29.95S WCI  25
JANESVILLE     SUNNY     37  21  52 SW9       29.96F WCI  31
$$

WIZ051-052-058>065-066-070>072-231700-
SOUTHEAST WISCONSIN

CITY           SKY/WX    TMP DP  RH WIND       PRES   REMARKS
MILWAUKEE      PTSUNNY   38  21  50 W12       29.98F WCI  30
WAUKESHA       CLOUDY    34  19  55 SW9       29.98F WCI  26
MILWAUKEE/TIMM CLOUDY    36  18  48 SW9       29.98F WCI  29
RACINE         SUNNY     39  21  48 W10       29.99F WCI  32
BURLINGTON     SUNNY     40  27  58 SW13      29.97S WCI  33
KENOSHA        SUNNY     39  20  46 SW13G21   29.98F WCI  31
FOND DU LAC    SUNNY     36  20  52 SW13      29.92F WCI  27
SHEBOYGAN      PTSUNNY   36  22  56 SW12      29.94F WCI  28
WEST BEND      PTSUNNY   34  21  60 SW8       29.94F WCI  27
JUNEAU         SUNNY     34  21  57 SW9       29.94F WCI  27
$$

LSZ147-162-231700-
LAKE SUPERIOR

STATION/POSITION TIME  TEMP    WIND        PRES    WAVE
                       AIR SEA DIR/SP/G            HT/PER
                 (UTC) (F)     (DEG/KT/KT) (MB)    (FT/S)
DEVILS ISLAND    1600   31     250/ 15/ 19 1012.3F
SAXON HARBOR     1540   30     230/  9/ 13 1012.5F
$$

LMZ867-665-643>646-231700-
LAKE MICHIGAN

STATION/POSITION TIME  TEMP    WIND        PRES    WAVE
                       AIR SEA DIR/SP/G            HT/PER
                 (UTC) (F)     (DEG/KT/KT) (MB)    (FT/S)
N MID LAKE BUOY  1550   35 47  240/ 14/ 17 1013.8F   3/ 6
NORTHPORT PIER   1601   35     240/  4/ 14 1012.5
KEWAUNEE LAKESHO 1600   36     250/  8/ 13 1012.6
SHEBOYGAN LAKESH 1600   35     250/ 12/ 13 1014.4F
PORT WASHINGTON  1540   37     250/  6/ 10 1015.6F
MILWAUKEE LAKESH 1600   36     230/ 11/ 12   N/A
S MID LAKE BUOY  1550   39 47  250/ 17/ 21 1016.1F   4/ 5
KENOSHA   LAKESH 1600   38     230/ 10/ 15 1015.2
$$

TC  - TEMPERATURE IN CELSIUS
VSB - VISIBILITY IN STATUTE MILES
WCI - WIND CHILL INDEX
HX  - HEAT INDEX




USA.gov is the U.S. government's official web portal to all federal, state and local government web resources and services.